Regional Weather Roundup
Issued by NWS

Home | Current Version | Previous Version | Text Only | Print | Product List | Glossary On
Versions: 1 2 3 4 5 6 7 8 9 10 11 12 13 14 15 16 17 18 19 20 21 22 23 24 25 26 27 28 29 30 31 32 33 34 35 36 37 38 39 40 41 42 43 44 45 46 47 48 49 50
000
ASUS43 KLMK 171502
RWRKY
KENTUCKY REGIONAL WEATHER ROUNDUP
NATIONAL WEATHER SERVICE LOUISVILLE KY
1100 AM EDT TUE OCT 17 2017

NOTE "FAIR" INDICATES FEW OR NO CLOUDS BELOW 12,000 FEET
WITH NO SIGNIFICANT WEATHER AND/OR OBSTRUCTIONS TO VISIBILITY.

KYZ001>023-026-027-061>063-070>075-171600-
WESTERN AND SOUTH CENTRAL KENTUCKY

CITY           SKY/WX    TMP DP  RH WIND       PRES   REMARKS
PADUCAH        SUNNY     58  46  64 VRB3      30.38S
HENDERSON      SUNNY     58  45  62 S9        30.39F
OWENSBORO      SUNNY     57  44  62 S6        30.40S
HOPKINSVILLE   NOT AVBL
BOWLING GREEN  SUNNY     56  49  77 CALM      30.41R
GLASGOW        NOT AVBL
$$

KYZ024-025-028>034-038-045-046-053-171600-
NORTH CENTRAL KENTUCKY

CITY           SKY/WX    TMP DP  RH WIND       PRES   REMARKS
LOUISVILLE/SDF MOSUNNY   55  45  68 CALM      30.40S
LOUISVILLE/LOU SUNNY     55  47  74 S6        30.41S
FORT KNOX      SUNNY     56  44  63 CALM      30.38S
$$

KYZ035>037-039>044-047>052-055>060-089>105-171600-
NORTHEAST KENTUCKY

CITY           SKY/WX    TMP DP  RH WIND       PRES   REMARKS
LEXINGTON      SUNNY     57  44  62 S6        30.40R
COVINGTON      MOSUNNY   56  43  61 S7        30.38S
FRANKFORT      SUNNY     57  44  62 S3        30.39S
$$

KYZ054-064>069-076>088-106>120-171600-
SOUTHEAST KENTUCKY

CITY           SKY/WX    TMP DP  RH WIND       PRES   REMARKS
JACKSON        SUNNY     52  43  71 CALM      30.40S
LONDON         SUNNY     54  42  64 E3        30.40S
SOMERSET       NOT AVBL
MIDDLESBORO    CLOUDY    42  42 100 CALM      30.43S
MONTICELLO     SUNNY     54  46  74 N8        30.42S
$$




USA.gov is the U.S. government's official web portal to all federal, state and local government web resources and services.